Weather in Rudnichnyy

Russia / Sverdlovsk Oblast     59°41′55″N   60°17′23″E
temp.,
°C
wind,
m/s
gust,
m/s
humid.,
%
clouds,
%
prec.,
mm/h
press.,
hPa
HPBL,
m
22 january, sat
sat2223:00−13wsw249560 0.0 101946
02:00−14wsw239566 0.0 102149
05:00−11w388633 0.0 1022195
08:00−11wsw259190 0.0 102394
11:00−9wsw259082 0.0 1024112
14:00−6wsw2485100 0.0 1025182
17:00−11wsw119540 0.0 102710
20:00−16w22975 0.0 102912
23 january, sun
sun2323:00−18w22975 0.0 103016
02:00−19wnw21995 0.0 103111
05:00−20w1110095 0.0 10329
08:00−20wnw1110051 0.0 10339
11:00−15w119555 0.0 103330
14:00−8wsw128913 0.0 103391
17:00−12ssw119677 0.0 10349
20:00−15wsw1197100 0.0 10359
24 january, mon
mon2423:00−11w1195100 0.0 103428
02:00−9wsw1492100 0.0 103477
05:00−7sw1397100 0.1 1034108
08:00−8wsw1497100 0.2 103489
11:00−7wsw2691100 0.2 1034182
14:00−6w39865 0.0 1033424
17:00−12wsw22945 0.0 103319
20:00−13w37914 0.0 1033161
25 january, tue
tue2523:00−12w311875 0.0 1032278
02:00−11w412835 0.0 1030264
05:00−12wsw3108699 0.0 1028225
08:00−10wsw4128585 0.0 1026303
11:00−8w4148399 0.0 1025451
14:00−6w51289100 0.4 1025483
17:00−6w41182100 0.7 1024405
20:00−7w51374100 0.0 1024355
26 january, wed
wed2623:00−8w51475100 0.0 1024331
02:00−9w41379100 0.0 1025270
05:00−13w3791100 0.0 1025106
08:00−14w249387 0.0 102441
11:00−11w288698 0.0 1024119
14:00−7w3885100 0.0 1024220
17:00−12w2590100 0.0 102581
20:00−15w268991 0.0 102679